Main page
Satellite images Climate Cyclones Lightning AirportsFAQ Languages Contact Newsletter About
Weather : Europe Africa North America South America Asia Australia-Oceania Others

chittagong-bd, Chittagong, Shah Amanat International Airport

latitude: , longitude: Bangladesh, elevation: 22-16N m


METAR: VGEG 210100Z 00000KT 0700 FG NSC 20/19 Q1015 NOSIG